Weather History for St. Augustine, FL

Change the Weather History Date:

Wednesday, January 6, 2010

  Actual Average Record
Temperature  
Mean Temperature 38 °F -  
Max Temperature 50 °F 62 °F 80 °F (1974)
Min Temperature 26 °F 44 °F 26 °F (1999)
Degree Days  
Heating Degree Days 27    
Moisture  
Dew Point 15 °F    
Average Humidity 45    
Maximum Humidity 69    
Minimum Humidity 19    
Precipitation  
Precipitation 0.00 in - - ()
Sea Level Pressure  
Sea Level Pressure 30.21 in    
Wind  
Wind Speed 7 mph (West)    
Max Wind Speed 13 mph    
Max Gust Speed 20 mph    
Visibility 10 miles    
Events      
Averages and records for this station are not official NWS values.
T = Trace of Precipitation, MM = Missing Value Source: NWS Daily Summary

Daily Weather History Graph

Daily Weather History Graph

Search for Another Location

Airport:

Trip Planner

Search our weather history database for the weather conditions in past years. The results will help you decide how hot, cold, wet, or windy it might be!

Date:

Astronomy

Jan. 06, 2010 Rise Set
Actual Time 7:22 AM EST 5:40 PM EST
Civil Twilight 6:55 AM EST 6:06 PM EST
Nautical Twilight 6:26 AM EST 6:36 PM EST
Astronomical Twilight 5:57 AM EST 7:05 PM EST
Moon No Moon Rise 11:19 AM EST (1/6)
Length of Visible Light 11h 10m
Length of Day
10h 18m
Waning Gibbous, 58% of the Moon is Illuminated
Jan 6
Waning Gibbous
Jan 7
Last Quarter
Jan 15
New
Jan 23
First Quarter
Jan 30
Full

Hourly Weather History & Observations

Time (EST) Temp. Windchill Dew Point Humidity Pressure Visibility Wind Dir Wind Speed Gust Speed Precip Events Conditions
12:58 AM 32.0 °F 24.8 °F 16.0 °F 52% 30.22 in 10.0 mi West 8.1 mph - N/A   Clear
1:58 AM 30.9 °F 25.2 °F 18.0 °F 59% 30.21 in 10.0 mi West 5.8 mph - N/A   Clear
2:58 AM 30.0 °F 24.1 °F 18.0 °F 61% 30.21 in 10.0 mi West 5.8 mph - N/A   Clear
3:58 AM 28.9 °F 21.9 °F 17.1 °F 61% 30.20 in 10.0 mi West 6.9 mph - N/A   Clear
4:58 AM 27.0 °F 21.6 °F 17.1 °F 66% 30.20 in 10.0 mi West 4.6 mph - N/A   Clear
5:58 AM 27.0 °F 20.5 °F 17.1 °F 66% 30.21 in 10.0 mi West 5.8 mph - N/A   Clear
6:58 AM 26.1 °F 21.9 °F 17.1 °F 69% 30.23 in 10.0 mi West 3.5 mph - N/A   Clear
7:58 AM 27.0 °F 20.5 °F 16.0 °F 63% 30.25 in 10.0 mi WNW 5.8 mph - N/A   Clear
8:58 AM 30.9 °F 22.8 °F 16.0 °F 54% 30.24 in 10.0 mi WNW 9.2 mph - N/A   Clear
9:58 AM 34.0 °F 26.0 °F 12.0 °F 40% 30.26 in 10.0 mi WNW 10.4 mph - N/A   Clear
10:58 AM 37.9 °F 31.5 °F 10.9 °F 33% 30.25 in 10.0 mi West 9.2 mph - N/A   Clear
11:58 AM 42.1 °F 38.4 °F 12.0 °F 29% 30.23 in 10.0 mi Variable 5.8 mph - N/A   Clear
12:58 PM 44.1 °F 38.1 °F 10.0 °F 25% 30.19 in 10.0 mi WNW 11.5 mph 17.3 mph N/A   Clear
1:58 PM 46.9 °F - 9.0 °F 21% 30.16 in 10.0 mi West 12.7 mph 19.6 mph N/A   Clear
2:58 PM 50.0 °F - 9.0 °F 19% 30.13 in 10.0 mi WNW 10.4 mph 17.3 mph N/A   Clear
3:58 PM 50.0 °F - 10.0 °F 20% 30.14 in 10.0 mi WNW 9.2 mph - N/A   Clear
4:58 PM 48.9 °F - 10.9 °F 22% 30.16 in 10.0 mi West 5.8 mph - N/A   Clear
5:58 PM 45.0 °F 42.6 °F 14.0 °F 29% 30.17 in 10.0 mi West 4.6 mph - N/A   Clear
6:58 PM 39.0 °F 35.7 °F 18.0 °F 43% 30.19 in 10.0 mi West 4.6 mph - N/A   Clear
7:58 PM 37.0 °F 33.3 °F 19.0 °F 48% 30.20 in 10.0 mi WSW 4.6 mph - N/A   Clear
8:58 PM 37.0 °F 32.4 °F 18.0 °F 46% 30.21 in 10.0 mi West 5.8 mph - N/A   Clear
9:58 PM 37.0 °F 34.5 °F 17.1 °F 44% 30.22 in 10.0 mi West 3.5 mph - N/A   Partly Cloudy
10:58 PM 35.1 °F 32.2 °F 18.0 °F 50% 30.23 in 10.0 mi NW 3.5 mph - N/A   Clear
11:58 PM 34.0 °F 29.8 °F 18.0 °F 52% 30.22 in 10.0 mi West 4.6 mph - N/A   Clear